Barnwell, SC

5:38 PM EST on November 19, 2017 (GMT -0500)
Barnwell County

Weather History for KBNL - January, 2014

Change the Weather History Date:

Monday, January 27, 2014

  Actual Average (KOGB) Record (KOGB)
Temperature  
Mean Temperature 56 °F 47 °F  
Max Temperature 69 °F 58 °F 77 °F (1967)
Min Temperature 44 °F 36 °F 17 °F (1985)
Degree Days  
Heating Degree Days 8 18  
Month to date heating degree days 524  
Since 1 July heating degree days 1428  
Cooling Degree Days 0 0  
Month to date cooling degree days 0  
Year to date cooling degree days 0  
Growing Degree Days 6 (Base 50)    
Moisture  
Dew Point 41 °F    
Average Humidity 61    
Maximum Humidity 94    
Minimum Humidity 35    
Precipitation  
Precipitation 0.00 in 0.15 in 1.81 in (1998)
Month to date precipitation 3.40  
Year to date precipitation 3.40  
Sea Level Pressure  
Sea Level Pressure 29.93 in    
Wind  
Wind Speed 3 mph (WSW)    
Max Wind Speed 16 mph    
Max Gust Speed 23 mph    
Visibility 10 miles    
Events      
T = Trace of Precipitation, MM = Missing Value Source: NWS Daily Summary

Daily Weather History Graph

Daily Weather History Graph

Search for Another Location

Airport or City:

Trip Planner

Search our weather history database for the weather conditions in past years. The results will help you decide how hot, cold, wet, or windy it might be!

Date:

Astronomy

Jan. 27, 2014 Rise Set
Actual Time 7:24 AM EST 5:52 PM EST
Civil Twilight 6:58 AM EST 6:18 PM EST
Nautical Twilight 6:28 AM EST 6:48 PM EST
Astronomical Twilight 5:58 AM EST 7:18 PM EST
Moon 4:02 AM EST (1/27) 2:39 PM EST (1/27)
Length of Visible Light 11h 20m
Length of Day
10h 28m
Waning Crescent, 15% of the Moon is Illuminated
Jan 27
Waning Crescent
Jan 30
New
Feb 6
First Quarter
Feb 14
Full
Feb 22
Last Quarter

Hourly Weather History & Observations

Time (EST) Temp. Dew Point Humidity Pressure Visibility Wind Dir Wind Speed Gust Speed Precip Events Conditions
12:15 AM 46.4 °F 32.0 °F 57% 29.97 in 10.0 mi Calm Calm - N/A   Clear
12:35 AM 46.4 °F 32.0 °F 57% 29.96 in 10.0 mi Calm Calm - N/A   Clear
12:55 AM 46.4 °F 32.0 °F 57% 29.96 in 10.0 mi Calm Calm - N/A   Clear
1:15 AM 48.2 °F 32.0 °F 54% 29.96 in 10.0 mi Calm Calm - N/A   Clear
1:35 AM 48.2 °F 32.0 °F 54% 29.96 in 10.0 mi Calm Calm - N/A   Clear
1:55 AM 48.2 °F 32.0 °F 54% 29.96 in 10.0 mi SW 4.6 mph - N/A   Clear
2:15 AM 48.2 °F 32.0 °F 54% 29.95 in 10.0 mi Calm Calm - N/A   Clear
2:35 AM 48.2 °F 32.0 °F 54% 29.95 in 10.0 mi Calm Calm - N/A   Clear
2:55 AM 46.4 °F 33.8 °F 62% 29.95 in 10.0 mi Calm Calm - N/A   Clear
3:15 AM 46.4 °F 33.8 °F 62% 29.95 in 10.0 mi Calm Calm - N/A   Clear
3:35 AM 46.4 °F 33.8 °F 62% 29.96 in 10.0 mi Calm Calm - N/A   Clear
3:55 AM 46.4 °F 33.8 °F 62% 29.95 in 10.0 mi Calm Calm - N/A   Clear
4:15 AM 46.4 °F 33.8 °F 62% 29.95 in 10.0 mi Calm Calm - N/A   Clear
4:35 AM 46.4 °F 33.8 °F 62% 29.94 in 10.0 mi Calm Calm - N/A   Clear
4:55 AM 46.4 °F 33.8 °F 62% 29.94 in 10.0 mi Calm Calm - N/A   Partly Cloudy
5:15 AM 44.6 °F 33.8 °F 66% 29.94 in 10.0 mi Calm Calm - N/A   Partly Cloudy
5:35 AM 44.6 °F 33.8 °F 66% 29.94 in 10.0 mi Calm Calm - N/A   Partly Cloudy
5:55 AM 44.6 °F 35.6 °F 71% 29.93 in 10.0 mi Calm Calm - N/A   Clear
6:15 AM 44.6 °F 35.6 °F 71% 29.94 in 10.0 mi Calm Calm - N/A   Clear
6:35 AM 44.6 °F 35.6 °F 71% 29.93 in 10.0 mi Calm Calm - N/A   Clear
6:55 AM 44.6 °F 35.6 °F 71% 29.94 in 10.0 mi Calm Calm - N/A   Scattered Clouds
7:15 AM 44.6 °F 35.6 °F 71% 29.95 in 10.0 mi Calm Calm - N/A   Partly Cloudy
7:35 AM 44.6 °F 35.6 °F 71% 29.94 in 10.0 mi Calm Calm - N/A   Clear
7:55 AM 44.6 °F 35.6 °F 71% 29.95 in 10.0 mi Calm Calm - N/A   Clear
8:15 AM 44.6 °F 37.4 °F 76% 29.96 in 10.0 mi Calm Calm - N/A   Clear
8:35 AM 48.2 °F 37.4 °F 66% 29.96 in 10.0 mi Calm Calm - N/A   Clear
8:55 AM 50.0 °F 39.2 °F 66% 29.96 in 10.0 mi Calm Calm - N/A   Clear
9:15 AM 50.0 °F 39.2 °F 66% 29.96 in 10.0 mi Calm Calm - N/A   Partly Cloudy
9:35 AM 53.6 °F 42.8 °F 67% 29.95 in 10.0 mi WSW 8.1 mph - N/A   Clear
9:55 AM 55.4 °F 44.6 °F 67% 29.96 in 10.0 mi WSW 10.4 mph - N/A   Mostly Cloudy
10:15 AM 57.2 °F 44.6 °F 63% 29.96 in 10.0 mi West 11.5 mph 18.4 mph N/A   Scattered Clouds
10:35 AM 57.2 °F 46.4 °F 67% 29.95 in 10.0 mi West 9.2 mph - N/A   Clear
10:55 AM 60.8 °F 44.6 °F 55% 29.94 in 10.0 mi West 12.7 mph 17.3 mph N/A   Clear
11:15 AM 60.8 °F 44.6 °F 55% 29.93 in 10.0 mi West 5.8 mph - N/A   Clear
11:35 AM 62.6 °F 44.6 °F 52% 29.93 in 10.0 mi WSW 12.7 mph - N/A   Clear
11:55 AM 62.6 °F 44.6 °F 52% 29.93 in 10.0 mi WNW 8.1 mph - N/A   Clear
12:15 PM 64.4 °F 44.6 °F 49% 29.92 in 10.0 mi West 11.5 mph 18.4 mph N/A   Clear
12:35 PM 64.4 °F 42.8 °F 45% 29.91 in 10.0 mi West 10.4 mph 16.1 mph N/A   Clear
12:55 PM 66.2 °F 39.2 °F 37% 29.89 in 10.0 mi WSW 15.0 mph 19.6 mph N/A   Clear
1:15 PM 66.2 °F 39.2 °F 37% 29.88 in 10.0 mi West 10.4 mph - N/A   Clear
1:35 PM 66.2 °F 42.8 °F 43% 29.88 in 10.0 mi WSW 11.5 mph 16.1 mph N/A   Clear
1:55 PM 68.0 °F 39.2 °F 35% 29.87 in 10.0 mi WSW 15.0 mph 18.4 mph N/A   Clear
2:15 PM 68.0 °F 39.2 °F 35% 29.86 in 10.0 mi WSW 10.4 mph 18.4 mph N/A   Clear
2:35 PM 68.0 °F 42.8 °F 40% 29.85 in 10.0 mi SW 9.2 mph - N/A   Clear
2:55 PM 68.0 °F 42.8 °F 40% 29.85 in 10.0 mi WSW 8.1 mph - N/A   Clear
3:15 PM 69.8 °F 42.8 °F 38% 29.85 in 10.0 mi SW 16.1 mph 23.0 mph N/A   Clear
3:35 PM 66.2 °F 44.6 °F 46% 29.85 in 10.0 mi SW 12.7 mph - N/A   Clear
3:55 PM 66.2 °F 44.6 °F 46% 29.86 in 10.0 mi WSW 11.5 mph - N/A   Clear
4:15 PM 66.2 °F 46.4 °F 49% 29.87 in 10.0 mi West 15.0 mph 19.6 mph N/A   Clear
4:35 PM 64.4 °F 46.4 °F 52% 29.87 in 10.0 mi West 8.1 mph - N/A   Scattered Clouds
4:55 PM 64.4 °F 46.4 °F 52% 29.88 in 10.0 mi WSW 11.5 mph 17.3 mph N/A   Overcast
5:15 PM 64.4 °F 46.4 °F 52% 29.89 in 10.0 mi West 6.9 mph - N/A   Mostly Cloudy
5:35 PM 64.4 °F 46.4 °F 52% 29.89 in 10.0 mi WSW 10.4 mph - N/A   Mostly Cloudy
5:55 PM 64.4 °F 46.4 °F 52% 29.90 in 10.0 mi WSW 6.9 mph - N/A   Mostly Cloudy
6:15 PM 62.6 °F 46.4 °F 55% 29.91 in 10.0 mi WSW 6.9 mph - N/A   Mostly Cloudy
6:35 PM 62.6 °F 46.4 °F 55% 29.91 in 10.0 mi WSW 3.5 mph - N/A   Mostly Cloudy
6:55 PM 62.6 °F 48.2 °F 59% 29.93 in 10.0 mi West 5.8 mph - N/A   Mostly Cloudy
7:15 PM 60.8 °F 48.2 °F 63% 29.94 in 10.0 mi West 5.8 mph - N/A   Mostly Cloudy
7:35 PM 60.8 °F 48.2 °F 63% 29.94 in 10.0 mi Calm Calm - N/A   Mostly Cloudy
7:55 PM 60.8 °F 48.2 °F 63% 29.95 in 10.0 mi Calm Calm - N/A   Scattered Clouds
8:15 PM 57.2 °F 48.2 °F 72% 29.95 in 10.0 mi Calm Calm - N/A   Clear
8:35 PM 55.4 °F 48.2 °F 77% 29.96 in 10.0 mi Calm Calm - N/A   Partly Cloudy
8:55 PM 53.6 °F 48.2 °F 82% 29.97 in 10.0 mi Calm Calm - N/A   Partly Cloudy
9:15 PM 53.6 °F 48.2 °F 82% 29.97 in 10.0 mi Calm Calm - N/A   Clear
9:35 PM 53.6 °F 48.2 °F 82% 29.98 in 10.0 mi Calm Calm - N/A   Clear
9:55 PM 51.8 °F 48.2 °F 88% 29.98 in 10.0 mi Calm Calm - N/A   Clear
10:15 PM 48.2 °F 46.4 °F 93% 29.98 in 10.0 mi Calm Calm - N/A   Clear
10:35 PM 50.0 °F 48.2 °F 94% 29.99 in 10.0 mi Calm Calm - N/A   Clear
10:55 PM 48.2 °F 46.4 °F 93% 29.99 in 10.0 mi Calm Calm - N/A   Clear
11:15 PM 50.0 °F 44.6 °F 82% 30.00 in 10.0 mi Calm Calm - N/A   Clear
11:35 PM 51.8 °F 41.0 °F 67% 30.00 in 10.0 mi Calm Calm - N/A   Clear
11:55 PM 51.8 °F 41.0 °F 67% 30.00 in 10.0 mi Calm Calm - N/A   Clear